Hereford, TX

3:54 PM CST on February 25, 2017 (GMT -0600)
Hereford Municipal

Weather History for KHRX - April, 2012

Change the Weather History Date:

Saturday, April 21, 2012

  Actual Average (KAMA) Record (KAMA)
Temperature  
Mean Temperature 62 °F -  
Max Temperature 82 °F 68 °F 91 °F (1963)
Min Temperature 42 °F 41 °F 27 °F (1982)
Degree Days  
Heating Degree Days 3    
Growing Degree Days 12 (Base 50)    
Moisture  
Dew Point 34 °F    
Average Humidity 41    
Maximum Humidity 76    
Minimum Humidity 13    
Precipitation  
Precipitation 0.00 in - - ()
Sea Level Pressure  
Sea Level Pressure 30.11 in    
Wind  
Wind Speed 8 mph (South)    
Max Wind Speed 20 mph    
Max Gust Speed 29 mph    
Visibility 10 miles    
Events      
Averages and records for this station are not official NWS values.
T = Trace of Precipitation, MM = Missing Value Source: NWS Daily Summary

Daily Weather History Graph

Daily Weather History Graph

Search for Another Location

Airport or City:

Trip Planner

Search our weather history database for the weather conditions in past years. The results will help you decide how hot, cold, wet, or windy it might be!

Date:

Astronomy

Apr. 21, 2012 Rise Set
Actual Time 7:09 AM CDT 8:26 PM CDT
Civil Twilight 6:43 AM CDT 8:53 PM CDT
Nautical Twilight 6:11 AM CDT 9:24 PM CDT
Astronomical Twilight 5:38 AM CDT 9:57 PM CDT
Moon 7:08 AM CDT (4/21) 9:07 PM CDT (4/21)
Length of Visible Light 14h 10m
Length of Day
13h 17m
New Moon, 0% of the Moon is Illuminated
Apr 21
New Moon
Apr 29
First Quarter
May 5
Full
May 12
Last Quarter
May 20
New

Hourly Weather History & Observations

Time (CDT) Temp. Windchill Dew Point Humidity Pressure Visibility Wind Dir Wind Speed Gust Speed Precip Events Conditions
12:15 AM 50.0 °F - 32.0 °F 50% 30.14 in 10.0 mi SE 5.8 mph - N/A   Clear
12:35 AM 46.4 °F 42.9 °F 32.0 °F 57% 30.14 in 10.0 mi ESE 6.9 mph - N/A   Clear
12:55 AM 46.4 °F 43.5 °F 32.0 °F 57% 30.14 in 10.0 mi SE 5.8 mph - N/A   Clear
1:15 AM 50.0 °F - 32.0 °F 50% 30.14 in 10.0 mi SE 8.1 mph - N/A   Clear
1:35 AM 48.2 °F - 32.0 °F 54% 30.14 in 10.0 mi SE 6.9 mph - N/A   Clear
1:55 AM 50.0 °F - 33.8 °F 54% 30.13 in 10.0 mi SSE 8.1 mph - N/A   Clear
2:15 AM 50.0 °F - 35.6 °F 58% 30.13 in 10.0 mi SSE 9.2 mph - N/A   Clear
2:35 AM 46.4 °F 41.9 °F 33.8 °F 62% 30.13 in 10.0 mi South 9.2 mph - N/A   Clear
2:55 AM 46.4 °F 42.4 °F 33.8 °F 62% 30.12 in 10.0 mi South 8.1 mph - N/A   Clear
3:15 AM 46.4 °F 41.9 °F 33.8 °F 62% 30.12 in 10.0 mi South 9.2 mph - N/A   Clear
3:35 AM 46.4 °F 41.5 °F 33.8 °F 62% 30.11 in 10.0 mi South 10.4 mph - N/A   Clear
3:55 AM 44.6 °F 39.2 °F 35.6 °F 71% 30.12 in 10.0 mi South 10.4 mph - N/A   Clear
4:15 AM 44.6 °F 39.7 °F 35.6 °F 71% 30.11 in 10.0 mi SSW 9.2 mph - N/A   Clear
4:35 AM 44.6 °F 40.7 °F 35.6 °F 71% 30.11 in 10.0 mi SSW 6.9 mph - N/A   Clear
4:55 AM 44.6 °F 40.7 °F 35.6 °F 71% 30.11 in 10.0 mi SSW 6.9 mph - N/A   Clear
5:15 AM 44.6 °F 42.2 °F 35.6 °F 71% 30.11 in 10.0 mi SSW 4.6 mph - N/A   Clear
5:35 AM 42.8 °F 39.3 °F 35.6 °F 76% 30.11 in 10.0 mi SW 5.8 mph - N/A   Clear
5:55 AM 42.8 °F 39.3 °F 33.8 °F 70% 30.11 in 10.0 mi SW 5.8 mph - N/A   Clear
6:15 AM 42.8 °F 39.3 °F 33.8 °F 70% 30.11 in 10.0 mi WSW 5.8 mph - N/A   Clear
6:35 AM 42.8 °F 38.6 °F 33.8 °F 70% 30.12 in 10.0 mi WSW 6.9 mph - N/A   Clear
6:55 AM 42.8 °F 38.6 °F 35.6 °F 76% 30.11 in 10.0 mi WSW 6.9 mph - N/A   Clear
7:15 AM 44.6 °F 40.7 °F 35.6 °F 71% 30.12 in 10.0 mi WSW 6.9 mph - N/A   Clear
7:35 AM 46.4 °F 41.5 °F 35.6 °F 66% 30.12 in 10.0 mi WSW 10.4 mph - N/A   Clear
7:55 AM 48.2 °F - 35.6 °F 62% 30.13 in 10.0 mi WSW 11.5 mph - N/A   Clear
8:15 AM 50.0 °F - 35.6 °F 58% 30.13 in 10.0 mi WSW 9.2 mph - N/A   Clear
8:35 AM 51.8 °F - 37.4 °F 58% 30.13 in 10.0 mi WSW 13.8 mph - N/A   Clear
8:55 AM 53.6 °F - 37.4 °F 54% 30.14 in 10.0 mi WSW 16.1 mph - N/A   Clear
9:15 AM 55.4 °F - 37.4 °F 51% 30.14 in 10.0 mi WSW 16.1 mph - N/A   Clear
9:55 AM 60.8 °F - 37.4 °F 42% 30.14 in 10.0 mi WSW 18.4 mph 24.2 mph N/A   Clear
10:15 AM 60.8 °F - 37.4 °F 42% 30.13 in 10.0 mi WSW 19.6 mph 23.0 mph N/A   Clear
10:35 AM 64.4 °F - 37.4 °F 37% 30.13 in 10.0 mi WSW 16.1 mph - N/A   Clear
10:55 AM 68.0 °F - 35.6 °F 30% 30.13 in 10.0 mi WSW 12.7 mph 19.6 mph N/A   Clear
11:15 AM 68.0 °F - 35.6 °F 30% 30.13 in 10.0 mi WSW 16.1 mph 23.0 mph N/A   Clear
11:35 AM 69.8 °F - 35.6 °F 28% 30.13 in 10.0 mi SW 18.4 mph 24.2 mph N/A   Clear
11:55 AM 71.6 °F - 35.6 °F 27% 30.13 in 10.0 mi WSW 15.0 mph 20.7 mph N/A   Clear
12:15 PM 71.6 °F - 35.6 °F 27% 30.12 in 10.0 mi WSW 13.8 mph 19.6 mph N/A   Clear
12:35 PM 71.6 °F - 35.6 °F 27% 30.12 in 10.0 mi West 11.5 mph 17.3 mph N/A   Clear
12:55 PM 71.6 °F - 35.6 °F 27% 30.11 in 10.0 mi WSW 5.8 mph - N/A   Clear
1:35 PM 75.2 °F - 33.8 °F 22% 30.10 in 10.0 mi WNW 4.6 mph - N/A   Clear
1:55 PM 77.0 °F - 33.8 °F 21% 30.09 in 10.0 mi West 3.5 mph - N/A   Clear
2:15 PM 77.0 °F - 33.8 °F 21% 30.09 in 10.0 mi West 4.6 mph - N/A   Clear
2:35 PM 78.8 °F - 32.0 °F 18% 30.08 in 10.0 mi East 4.6 mph - N/A   Clear
2:55 PM 78.8 °F - 32.0 °F 18% 30.08 in 10.0 mi NNW 3.5 mph - N/A   Clear
3:15 PM 80.6 °F - 32.0 °F 17% 30.07 in 10.0 mi East 8.1 mph - N/A   Clear
3:35 PM 80.6 °F - 32.0 °F 17% 30.07 in 10.0 mi NNE 9.2 mph 17.3 mph N/A   Clear
3:55 PM 82.4 °F - 30.2 °F 15% 30.06 in 10.0 mi NNE 5.8 mph - N/A   Clear
4:15 PM 82.4 °F - 28.4 °F 14% 30.06 in 10.0 mi East 5.8 mph 16.1 mph N/A   Clear
4:35 PM 82.4 °F - 28.4 °F 14% 30.05 in 10.0 mi NE 10.4 mph 18.4 mph N/A   Clear
5:15 PM 82.4 °F - 28.4 °F 14% 30.05 in 10.0 mi NE 5.8 mph - N/A   Clear
5:35 PM 82.4 °F - 26.6 °F 13% 30.05 in 10.0 mi North 5.8 mph 19.6 mph N/A   Clear
5:55 PM 82.4 °F - 28.4 °F 14% 30.05 in 10.0 mi North 12.7 mph - N/A   Clear
6:15 PM 80.6 °F - 26.6 °F 14% 30.06 in 10.0 mi NE 8.1 mph 28.8 mph N/A   Clear
6:35 PM 80.6 °F - 28.4 °F 15% 30.06 in 10.0 mi NNE 12.7 mph 19.6 mph N/A   Clear
6:55 PM 80.6 °F - 28.4 °F 15% 30.07 in 10.0 mi NNE 8.1 mph - N/A   Clear
7:15 PM 78.8 °F - 28.4 °F 16% 30.07 in 10.0 mi ENE 5.8 mph - N/A   Clear
7:35 PM 78.8 °F - 30.2 °F 17% 30.07 in 10.0 mi NE 9.2 mph - N/A   Clear
7:55 PM 77.0 °F - 32.0 °F 19% 30.08 in 10.0 mi NE 6.9 mph - N/A   Clear
8:15 PM 73.4 °F - 32.0 °F 22% 30.08 in 10.0 mi ENE 5.8 mph - N/A   Clear
9:15 PM 64.4 °F - 33.8 °F 32% 30.10 in 10.0 mi East 8.1 mph - N/A   Clear
9:35 PM 62.6 °F - 33.8 °F 34% 30.11 in 10.0 mi East 9.2 mph - N/A   Clear
9:55 PM 62.6 °F - 33.8 °F 34% 30.12 in 10.0 mi East 6.9 mph - N/A   Clear
10:15 PM 59.0 °F - 33.8 °F 39% 30.12 in 10.0 mi ESE 5.8 mph - N/A   Clear
10:35 PM 59.0 °F - 33.8 °F 39% 30.13 in 10.0 mi East 4.6 mph - N/A   Clear
10:55 PM 57.2 °F - 33.8 °F 41% 30.13 in 10.0 mi East 8.1 mph - N/A   Clear
11:15 PM 60.8 °F - 35.6 °F 39% 30.13 in 10.0 mi East 10.4 mph - N/A   Clear
11:35 PM 59.0 °F - 35.6 °F 42% 30.14 in 10.0 mi East 6.9 mph - N/A   Clear
11:55 PM 57.2 °F - 35.6 °F 44% 30.14 in 10.0 mi East 5.8 mph - N/A   Clear